Theta_e
321 322 321 322 322 323 322 322 323 328 331 332 333 332 332 334 335 335 334 334 333 332 331 330 329 328 329 331 331 330 327 322 320 317 317 322 328 332 335 335 333 336 332 323 322 320 318 320 321 323 320 319 316 315 315 316 313 313 306 305 303 305 304 309 307 308 306 304 303 305 309 309 307 308 310 311 310 311 312 311 317 319 318 324 322 329 335 335
321 322 322 321 322 322 322 321 321 322 329 331 332 333 333 334 335 334 334 333 332 331 331 330 329 328 329 330 331 328 326 325 319 319 319 331 336 336 334 333 334 334 329 320 320 318 317 319 320 322 319 316 320 313 314 313 313 308 307 307 304 306 307 309 308 307 306 303 305 305 307 309 309 310 310 307 308 309 309 310 314 313 316 322 323 327 333 333
322 322 322 322 322 322 321 320 318 318 320 330 331 332 332 333 333 333 333 332 331 331 330 330 329 328 328 330 329 327 325 321 319 316 321 334 338 340 337 337 332 332 322 320 320 320 320 320 322 320 320 317 318 314 312 310 311 311 308 305 307 311 308 308 307 306 306 306 304 305 304 305 309 309 311 307 308 309 307 308 310 311 313 317 322 326 332 332
321 322 321 322 322 322 321 319 318 318 318 318 327 332 331 331 331 333 332 331 330 330 330 330 329 328 328 329 329 326 323 318 312 317 325 336 337 338 336 332 333 329 323 323 323 322 323 325 323 320 320 317 318 317 310 310 308 310 307 306 309 312 308 307 307 306 305 306 305 304 304 303 306 309 309 308 306 307 308 311 311 311 312 317 322 324 331 330
321 321 321 322 322 321 320 319 318 318 317 318 319 327 332 332 331 332 332 331 330 330 329 329 329 329 328 328 326 325 317 306 309 321 327 334 336 336 336 333 331 325 321 323 324 325 324 323 321 320 320 315 318 315 314 311 312 308 307 307 307 309 309 306 307 305 304 304 305 304 303 304 307 306 307 308 305 306 308 312 312 312 313 318 322 323 329 330
320 320 321 320 320 319 319 318 318 317 318 317 319 323 330 332 331 331 332 331 330 329 329 329 329 328 328 327 327 320 312 295 315 318 335 333 333 337 335 333 330 323 323 322 321 321 321 321 320 317 316 316 315 311 316 313 310 304 307 306 307 308 308 304 305 303 303 304 304 304 305 305 304 305 307 307 306 308 310 310 312 313 313 324 325 325 325 329
318 318 319 319 319 318 318 318 318 318 321 322 323 325 327 331 331 331 331 331 330 329 328 328 328 328 327 325 325 317 310 314 317 325 332 333 333 335 333 332 328 324 324 321 320 319 320 319 319 317 317 316 317 315 317 309 308 310 308 307 306 307 306 304 303 302 303 303 303 305 305 303 304 302 307 305 308 310 311 313 312 313 317 324 324 325 325 327
318 318 318 318 317 317 318 319 320 322 322 322 322 324 327 329 329 330 330 330 329 329 328 328 328 328 326 324 317 310 310 313 320 329 331 332 331 333 329 324 322 324 322 319 319 318 320 317 316 319 316 314 317 315 314 308 307 307 308 306 304 305 305 305 304 303 303 303 304 303 302 303 305 304 303 304 307 309 312 312 311 311 320 322 323 324 324 327
318 317 318 318 317 318 320 321 321 321 322 322 321 321 327 328 329 330 330 329 329 328 328 327 327 327 325 321 313 307 308 320 323 327 330 330 328 329 326 322 325 322 321 322 320 321 319 317 318 320 314 315 319 316 312 308 304 310 312 307 304 305 305 305 304 304 304 304 303 302 302 305 304 304 302 305 308 310 313 312 313 314 318 318 320 323 324 326
318 317 317 317 317 319 320 320 320 321 321 321 320 320 322 328 329 330 330 329 329 328 328 327 327 326 322 317 313 304 315 326 327 328 327 327 328 325 322 324 325 322 320 319 320 319 318 319 318 320 316 318 318 315 313 311 308 313 311 306 305 306 305 306 304 304 305 306 304 301 303 304 303 302 302 308 309 310 311 310 313 312 314 317 319 322 323 325
317 317 317 318 318 318 319 320 320 320 320 320 320 320 321 324 328 329 329 329 328 328 328 327 327 324 318 316 307 304 325 327 327 328 328 326 324 320 319 324 324 321 319 319 318 322 321 319 319 319 316 313 316 315 314 312 312 312 308 306 305 306 305 306 305 305 305 305 305 303 302 304 303 302 302 306 307 307 308 310 313 312 312 314 318 321 324 325
317 317 318 318 318 318 318 320 320 321 321 320 319 319 320 320 328 327 328 328 328 328 327 327 326 323 319 312 307 311 323 328 327 328 330 326 320 319 321 325 324 321 320 315 317 320 321 320 318 316 311 317 312 312 313 313 313 311 309 304 305 305 304 306 304 305 306 303 304 305 303 302 301 299 304 307 306 308 308 310 312 311 312 314 316 320 323 324
316 317 317 317 317 317 319 320 320 321 321 321 320 319 320 319 323 328 328 327 328 328 327 327 325 323 316 306 311 324 325 328 328 326 329 328 322 321 321 325 324 321 321 318 318 318 321 318 319 313 315 314 312 310 312 315 310 311 310 309 308 306 305 308 308 307 306 306 305 304 296 302 304 303 306 308 307 306 307 307 310 311 312 314 317 319 321 323
315 315 316 317 317 317 318 319 319 318 319 320 319 318 316 318 318 328 327 327 327 328 327 326 327 322 314 308 318 321 326 332 328 324 328 329 320 318 317 321 320 322 324 321 320 319 318 318 319 312 314 311 309 310 310 308 310 306 309 308 305 303 303 312 310 309 303 305 305 306 297 301 305 304 307 307 307 305 305 306 307 310 312 314 318 319 320 322
314 314 315 316 317 316 316 316 317 317 319 319 318 316 315 315 316 325 327 327 327 328 326 326 325 317 309 310 318 324 328 329 322 324 329 324 320 318 315 315 318 320 320 319 317 318 319 318 314 310 308 309 311 306 304 305 307 310 302 300 306 303 307 307 312 310 303 302 307 305 297 299 304 308 306 308 306 306 305 306 307 308 311 313 314 316 318 319
315 314 314 316 316 317 317 317 317 318 317 316 316 315 315 315 316 321 327 327 327 327 327 322 321 318 310 306 314 328 326 318 318 325 328 325 319 316 320 319 319 319 319 316 317 316 317 315 310 311 309 307 307 305 304 304 304 307 303 303 303 305 306 304 307 310 310 307 306 305 300 304 303 308 309 306 306 306 306 306 307 307 309 312 313 315 316 318
314 314 315 314 314 315 317 317 317 317 317 316 317 316 316 316 318 318 328 327 327 327 323 316 318 318 304 315 322 317 316 319 324 324 323 325 322 320 318 316 315 314 315 314 315 314 312 308 304 306 310 306 306 307 301 299 299 301 303 302 306 304 304 303 304 307 309 306 301 304 303 304 307 301 303 303 306 307 305 306 306 307 308 309 312 313 314 316
314 314 314 313 313 315 317 318 319 318 318 317 317 316 316 318 319 318 325 326 326 323 322 325 319 312 308 312 307 311 320 320 321 322 323 324 322 319 317 313 314 313 312 309 311 308 308 303 304 302 304 305 305 303 299 296 300 299 300 300 303 304 304 304 302 305 305 305 305 304 302 304 307 309 303 302 304 305 305 305 306 306 306 307 308 311 313 314
313 314 314 313 314 316 316 316 318 318 318 319 318 318 318 319 321 321 320 319 313 308 304 305 307 296 295 305 315 317 319 323 324 321 319 319 321 320 317 317 315 310 306 305 303 306 304 303 303 301 298 300 302 303 303 305 306 304 303 303 304 301 301 301 304 304 306 302 302 304 301 301 304 306 310 310 304 304 305 307 307 306 306 306 307 308 309 311
313 314 314 314 315 316 316 316 315 317 318 317 315 315 314 309 309 309 317 315 310 308 308 310 311 312 312 311 313 320 324 326 316 318 320 322 315 314 314 313 311 311 307 303 302 303 306 297 295 296 300 302 305 306 307 309 307 308 307 305 304 304 304 306 306 301 305 302 301 302 304 304 305 305 307 310 310 305 305 306 307 307 306 306 306 306 308 309
314 314 314 314 315 314 313 314 314 316 317 315 313 307 298 300 300 301 308 310 313 314 312 311 312 311 310 314 317 318 313 315 319 316 317 320 317 313 308 310 306 303 305 307 302 305 305 297 297 301 304 305 305 307 308 307 306 306 305 304 303 304 302 307 304 300 301 300 301 303 302 302 304 306 307 309 307 306 305 305 306 308 308 308 308 307 308 309
314 314 315 314 313 312 312 313 313 314 314 315 311 305 307 307 308 306 303 303 309 313 314 313 314 312 317 317 320 321 318 310 312 314 318 319 312 307 307 308 304 301 306 305 302 299 298 297 301 304 307 308 307 307 308 305 303 305 304 303 302 303 306 301 302 299 299 299 299 303 300 300 301 303 305 305 305 306 308 306 306 308 310 311 309 308 309 310
314 314 314 313 312 312 313 314 314 313 314 311 307 308 306 310 311 312 305 308 304 312 312 312 309 312 313 319 319 320 311 306 304 309 312 316 309 310 308 305 303 305 305 301 295 295 293 299 305 307 308 307 306 306 306 304 304 304 303 302 300 305 302 298 300 300 298 300 299 300 297 298 301 304 305 307 306 305 307 307 306 307 309 310 310 308 308 308
314 313 313 312 312 313 312 310 310 311 310 310 309 307 312 314 315 310 304 300 299 305 311 312 312 312 312 310 318 316 310 308 307 305 313 314 308 311 306 305 303 302 300 300 300 298 298 303 308 308 307 306 304 305 303 302 301 304 304 303 302 302 302 302 299 300 298 299 298 298 298 299 302 302 304 308 309 307 306 306 306 306 307 309 311 311 310 308
313 313 312 312 312 312 310 309 307 307 310 309 306 310 312 312 312 310 302 300 301 300 315 313 316 314 315 322 320 313 313 312 311 312 312 313 311 306 305 308 303 296 299 301 302 301 301 306 308 306 305 304 303 300 302 303 301 302 304 304 303 304 302 299 298 297 296 297 298 298 293 295 303 304 304 307 309 307 306 305 305 304 305 307 305 306 309 312
312 312 313 312 311 310 310 303 303 308 306 303 306 310 311 312 311 311 301 287 286 297 307 298 315 306 321 312 316 314 313 305 314 312 313 313 317 310 306 303 305 296 299 301 302 302 303 307 306 303 303 303 303 302 304 304 301 300 300 305 304 303 303 300 298 298 294 292 297 300 292 291 302 301 303 305 306 307 308 305 305 305 305 305 305 306 306 306
312 311 311 311 310 309 301 296 309 306 301 302 309 311 310 311 313 309 296 285 284 297 296 307 307 307 319 312 313 312 296 298 314 313 309 316 310 315 303 301 303 304 304 305 301 296 298 300 303 304 303 302 300 299 303 303 301 299 303 304 303 302 300 299 299 299 298 301 298 295 296 290 291 298 304 306 303 302 303 304 304 305 306 305 306 306 307 307
311 311 310 310 310 311 303 305 303 300 303 307 312 311 312 311 310 306 292 279 278 303 297 299 305 318 315 314 314 307 304 307 301 304 312 314 315 309 307 301 300 301 302 302 291 298 299 299 302 301 302 300 299 302 304 304 301 300 300 304 302 301 300 300 299 298 298 294 291 294 296 290 290 296 302 302 300 301 301 303 304 304 305 305 306 306 307 308
310 310 311 311 310 311 308 303 302 300 307 311 311 311 311 310 306 293 282 277 295 296 313 300 316 310 310 312 309 309 305 309 300 304 310 312 311 309 303 303 304 303 304 303 299 295 300 301 302 303 301 299 303 304 304 303 300 298 302 303 302 302 300 299 297 297 296 291 287 294 295 289 291 298 301 300 298 299 301 304 305 306 306 306 306 307 307 308
310 309 310 310 309 307 307 305 304 308 312 311 310 311 310 306 297 285 280 273 298 285 299 302 302 299 307 302 302 305 303 304 305 305 308 306 308 309 305 310 305 302 301 300 298 297 297 301 305 304 301 304 304 303 304 304 302 302 301 299 298 298 298 297 297 294 291 286 288 295 296 293 287 297 299 298 297 300 302 304 305 307 308 308 308 308 309 307
311 310 310 311 306 306 303 299 306 312 311 310 310 309 306 297 285 281 276 283 294 290 303 299 296 307 301 298 294 303 302 301 300 302 299 304 301 305 305 300 302 299 298 297 294 296 298 299 300 302 301 305 302 298 302 303 301 301 298 296 296 293 296 294 291 293 286 285 292 295 296 295 286 293 300 304 303 302 303 303 304 305 306 307 308 308 309 309
311 310 310 310 310 310 300 299 308 312 310 310 308 302 296 281 286 279 278 300 283 289 290 293 301 301 300 302 298 299 296 298 300 301 297 298 296 296 298 294 296 288 289 290 289 295 293 295 300 298 300 302 301 298 297 300 300 300 298 296 290 287 288 285 289 284 285 286 288 291 294 291 289 296 300 302 301 302 302 303 304 304 304 306 308 308 307 307
310 310 310 310 309 307 308 310 312 311 310 308 302 298 287 282 274 283 285 287 282 294 288 299 298 300 300 298 296 299 302 294 300 300 301 300 297 297 302 300 300 297 287 293 290 289 291 297 295 297 298 301 303 295 292 292 296 297 295 293 289 286 284 282 286 288 288 289 290 290 293 288 294 297 301 300 303 304 303 304 304 304 304 305 306 306 305 307
310 309 307 308 308 309 309 311 311 312 306 304 297 289 286 280 279 288 286 286 287 294 296 296 300 301 300 294 296 298 294 298 299 298 301 296 297 293 297 299 301 298 298 294 287 288 285 286 292 295 292 300 301 301 298 295 295 296 300 297 292 291 286 282 286 283 285 288 287 292 288 287 289 295 297 300 302 304 305 304 306 306 306 306 306 306 306 307
309 308 308 307 307 308 309 310 311 310 305 299 289 285 279 279 287 283 285 286 288 292 291 298 297 296 295 297 299 299 298 291 299 298 297 295 292 294 294 294 299 302 299 290 291 292 291 290 295 299 300 300 298 304 302 299 296 298 299 301 294 291 296 288 288 288 287 286 285 285 288 294 296 300 301 301 301 301 302 303 303 303 303 303 304 305 305 305
307 305 307 303 304 306 308 309 308 308 301 292 285 281 280 284 283 288 287 294 292 287 289 294 296 293 292 293 297 297 299 294 297 297 295 297 297 295 299 298 297 301 296 292 294 289 293 289 295 296 297 298 300 302 300 302 288 295 296 290 294 298 295 288 285 288 286 287 286 290 288 293 298 299 301 301 300 300 301 301 302 302 302 303 304 305 305 306
302 303 299 302 302 306 308 307 307 303 298 289 284 279 286 284 288 292 295 292 291 293 290 285 288 289 288 287 291 295 294 298 296 295 290 298 295 298 298 299 302 302 302 300 294 300 291 287 291 294 291 298 298 302 302 303 302 297 290 295 300 300 297 291 286 285 285 284 286 289 287 290 291 288 301 299 297 299 300 300 301 301 302 302 304 306 307 308
300 300 299 300 303 306 307 308 306 300 293 286 281 285 287 285 292 293 296 296 295 294 288 287 287 291 287 288 288 293 295 293 292 295 290 296 291 302 299 298 302 302 303 305 297 298 299 284 288 292 295 295 298 301 298 300 299 297 294 303 293 287 286 291 288 282 281 282 285 288 288 289 292 293 295 296 297 298 300 302 302 301 302 303 304 305 307 309
301 297 291 299 305 306 307 308 302 295 288 283 282 283 285 288 294 292 295 297 298 293 288 288 286 286 288 288 292 295 295 291 294 292 290 293 291 300 300 302 299 303 304 305 300 301 301 288 287 293 293 293 295 296 287 292 296 296 299 297 301 295 291 287 288 288 288 284 284 285 286 286 294 295 298 298 298 299 300 301 301 303 303 302 303 305 307 309
295 292 289 301 304 307 308 306 297 292 286 281 284 283 291 285 288 292 294 295 294 293 288 289 287 286 286 288 295 290 297 296 294 293 294 295 295 303 300 304 300 301 304 305 302 303 296 299 285 288 294 293 287 291 290 293 289 290 292 292 294 293 296 294 294 289 287 286 286 286 284 289 297 299 299 299 301 301 301 301 302 303 304 305 305 306 307 309
297 291 291 302 304 306 304 298 290 285 284 289 290 286 287 285 288 290 293 295 293 298 294 289 288 286 287 287 290 297 294 295 296 294 295 295 296 292 303 302 303 299 303 303 302 301 294 295 286 286 286 287 290 295 297 297 295 292 292 291 293 290 287 285 284 294 287 286 285 285 283 290 299 300 300 300 302 302 302 302 303 305 304 303 304 305 307 307
291 285 289 302 305 305 297 287 287 291 288 285 283 288 286 293 288 289 290 294 293 292 298 294 292 288 287 287 291 294 295 294 295 295 296 293 298 299 302 306 304 304 300 296 298 303 301 297 288 285 286 289 293 292 295 292 299 296 295 293 296 294 293 288 284 286 287 287 286 286 284 287 300 300 301 301 302 302 303 303 304 303 303 303 303 305 306 306
290 288 298 302 304 301 292 286 288 287 285 288 293 291 293 290 288 290 288 291 289 292 291 290 289 288 289 290 288 290 292 290 295 294 297 298 298 302 305 306 305 304 303 299 300 296 296 289 287 287 291 292 293 293 295 295 297 295 295 296 295 292 293 291 290 290 287 287 285 286 283 289 297 299 300 301 302 299 298 300 301 301 301 302 303 305 304 306
291 289 291 301 303 299 288 280 281 283 286 289 288 288 292 290 289 287 287 290 288 290 288 289 292 294 290 293 291 287 293 285 294 296 295 300 298 305 305 305 306 302 301 298 296 299 293 291 290 283 282 285 288 291 291 294 294 292 292 294 296 297 296 295 291 290 287 288 288 286 282 289 298 298 298 299 299 298 297 298 299 300 302 304 303 304 304 305
291 292 292 295 300 296 285 287 285 284 285 285 285 285 287 288 291 291 290 289 292 291 291 289 291 296 292 293 289 291 292 290 288 297 299 299 298 305 305 305 306 302 304 305 300 303 294 292 289 282 278 277 277 279 282 284 287 291 293 295 295 295 294 289 286 288 285 289 289 287 287 294 295 296 296 297 297 296 298 299 298 301 301 302 303 305 304 305
286 279 287 290 293 293 291 293 290 287 285 285 284 285 287 286 290 292 293 291 293 291 293 292 295 293 289 291 288 287 286 291 288 288 292 291 292 296 304 305 305 305 301 298 301 302 292 294 293 291 286 284 286 289 295 294 290 286 290 293 293 295 295 293 291 288 285 289 287 290 291 293 290 294 295 297 297 297 298 298 298 299 300 302 303 304 305 307
291 284 284 280 288 288 287 289 287 288 284 288 282 286 283 286 288 289 294 287 292 291 291 290 290 289 288 288 287 286 288 287 287 288 288 292 292 296 304 305 305 304 296 298 300 298 291 290 293 295 293 293 295 294 295 294 290 291 290 290 294 293 293 291 288 286 293 289 285 291 293 290 292 294 295 296 298 298 299 300 300 301 302 304 305 305 300 302
282 287 290 291 284 280 282 284 288 287 288 288 285 288 284 284 286 284 290 291 293 294 288 290 290 291 290 289 290 286 287 286 286 285 292 289 292 297 299 302 301 299 298 301 303 298 293 289 294 295 294 297 296 296 296 294 293 292 292 292 291 293 292 288 289 293 294 288 287 293 295 292 294 295 296 298 299 299 299 300 301 301 301 302 302 302 302 302
291 291 290 293 285 286 286 287 288 287 286 287 285 286 284 284 284 287 288 288 290 290 291 284 287 289 290 292 290 287 288 284 284 286 286 286 289 293 292 295 298 299 300 297 298 297 295 291 294 294 293 295 294 295 296 294 293 292 292 292 293 293 292 292 292 293 293 292 294 296 296 295 297 298 297 299 301 301 300 301 298 299 299 300 301 301 302 302
285 286 285 290 290 288 288 288 287 286 284 286 282 284 285 285 284 287 289 289 285 287 293 287 288 291 291 291 291 287 290 292 292 286 290 289 287 293 292 294 290 293 299 294 295 293 294 290 295 292 290 289 291 294 296 295 294 291 292 293 293 293 293 293 293 293 294 293 294 294 294 294 300 302 301 301 303 304 300 297 298 299 301 301 301 302 302 302
293 294 293 288 284 286 287 287 286 285 283 284 283 285 285 285 285 288 287 292 289 287 289 287 290 291 292 291 291 290 292 294 295 295 295 293 289 296 294 294 298 290 294 293 294 293 294 291 296 292 288 288 289 289 292 294 293 289 290 292 292 291 290 292 291 294 293 291 293 293 291 292 298 302 302 302 301 300 298 298 299 300 300 301 301 302 302 303
296 296 295 291 283 287 285 287 286 285 281 285 285 285 285 285 287 289 285 291 292 293 293 292 292 290 291 290 289 291 294 294 295 300 300 299 301 300 300 299 299 294 291 293 296 292 292 291 290 289 287 287 289 290 289 288 288 286 287 291 293 293 294 295 295 296 296 296 292 288 291 297 300 301 299 299 300 300 299 300 300 302 303 302 302 302 302 303
Wind_Speed
25 21 20 18 17 14 10 5 1 10 19 24 23 25 25 27 25 24 23 21 18 20 20 20 19 18 17 16 14 12 11 10 13 16 17 15 10 5 6 8 11 7 6 6 9 10 10 9 9 7 6 6 3 4 2 3 0 2 6 6 8 7 7 6 6 2 4 2 5 4 5 5 6 5 4 3 5 7 3 6 5 2 2 6 6 3 11 13
23 22 20 18 17 15 12 8 5 4 16 24 25 25 26 26 25 24 23 22 19 21 20 19 19 20 19 16 15 14 12 9 12 14 17 10 14 13 4 8 10 10 8 8 12 12 11 11 10 8 6 7 4 2 2 3 2 6 6 7 8 7 2 4 3 3 2 5 5 3 2 5 1 6 6 6 7 9 7 7 6 7 8 7 6 7 10 13
24 21 20 19 18 17 13 11 6 2 7 21 24 24 25 25 25 23 22 22 20 20 20 19 19 19 19 18 15 16 11 10 9 16 14 11 13 11 12 8 9 10 10 10 11 12 10 9 8 9 7 7 7 6 6 3 3 8 6 8 8 4 5 2 2 4 4 4 4 3 2 3 1 3 6 8 6 8 9 6 8 9 10 11 10 10 11 13
26 24 22 20 19 17 15 13 10 6 7 9 15 28 27 27 26 24 22 22 20 20 20 19 19 19 19 18 16 12 9 8 15 14 12 14 12 11 11 8 8 8 9 9 8 10 9 6 7 9 7 10 5 5 7 4 6 4 5 7 6 7 6 5 3 4 4 1 4 2 3 4 2 4 5 4 8 8 8 8 7 9 10 13 13 12 12 14
27 26 24 22 19 17 16 13 10 10 6 11 12 17 25 25 25 25 23 22 21 21 20 20 20 19 20 18 17 13 11 7 12 15 16 17 15 12 12 10 6 6 10 6 6 4 7 8 7 8 7 9 8 7 10 8 7 1 9 3 4 3 6 6 5 5 3 3 2 3 4 1 3 3 7 8 8 2 1 5 8 5 3 13 14 13 13 14
25 26 25 24 18 15 14 14 10 8 8 9 15 16 22 26 25 25 23 22 21 21 21 21 20 21 20 19 15 14 14 12 8 18 20 19 17 14 12 11 11 11 8 11 9 8 9 8 9 8 8 10 10 9 10 9 9 8 6 5 5 2 2 5 5 4 1 2 3 4 1 1 5 4 7 9 10 2 3 7 7 3 0 11 13 14 13 14
23 23 21 20 17 17 15 16 15 12 9 8 11 15 16 25 25 25 24 23 22 22 22 22 21 21 22 17 12 17 19 7 1 14 22 23 20 15 14 11 7 7 8 10 10 9 11 11 11 10 9 11 12 11 10 8 7 10 8 8 7 3 3 4 5 3 3 2 2 3 2 5 3 9 1 8 9 7 5 5 4 3 3 10 13 14 16 16
23 23 19 18 18 18 19 20 20 16 11 6 4 11 15 21 26 27 25 24 23 22 22 22 22 22 21 13 13 15 16 14 8 5 21 21 18 15 13 11 10 4 7 11 11 12 12 13 13 10 9 11 9 12 10 9 10 12 11 7 5 4 5 5 4 4 3 3 1 1 5 6 6 4 1 8 9 8 4 4 3 3 6 9 11 13 13 14
22 22 20 20 19 21 23 23 20 16 14 10 3 6 11 20 26 26 26 25 23 23 23 22 22 22 21 13 16 14 19 12 6 12 18 19 19 16 15 9 10 9 5 2 5 8 13 11 12 10 8 11 7 13 10 10 8 12 12 7 8 8 7 5 4 3 2 2 2 4 7 6 1 3 9 12 11 3 5 4 4 4 7 9 11 12 13 13
21 22 22 21 23 23 23 21 21 18 14 10 7 4 10 18 24 29 27 26 25 24 24 23 23 24 17 12 14 16 15 9 7 10 18 22 21 19 17 12 12 10 6 4 1 2 7 6 6 5 8 8 5 11 9 13 2 10 7 7 8 8 7 5 6 6 2 1 2 5 7 4 4 3 6 6 3 6 4 6 6 7 8 8 9 10 11 13
20 21 22 24 25 25 22 22 22 19 16 13 9 3 6 12 22 26 26 27 26 25 25 25 23 23 19 16 17 15 4 9 6 10 15 21 22 20 17 16 15 11 10 5 5 6 2 2 4 3 6 5 8 7 8 6 5 5 7 4 6 5 6 6 6 6 3 5 4 3 7 4 4 5 10 4 4 4 6 7 7 8 9 8 9 9 9 10
23 23 23 25 26 24 21 20 22 19 18 15 11 7 3 10 22 20 25 25 26 26 26 24 29 16 16 18 15 7 0 4 10 10 12 17 18 18 17 17 14 13 13 11 6 5 5 8 2 4 4 3 9 6 10 5 3 4 7 7 10 8 9 10 11 10 7 4 4 1 8 12 10 10 11 9 6 6 6 7 7 8 9 9 9 8 8 9
21 22 22 22 23 21 21 21 22 21 17 15 14 9 5 7 11 29 26 24 26 27 26 26 22 13 16 16 14 3 1 5 9 13 13 12 13 15 15 18 17 17 16 14 12 14 13 5 6 6 1 6 7 2 5 6 5 5 6 7 8 9 12 14 11 10 8 5 6 3 9 11 14 16 12 10 7 6 6 7 7 7 8 8 8 8 8 9
18 12 15 23 21 21 19 20 24 19 17 16 13 9 6 4 13 26 29 28 27 27 26 27 15 11 15 12 4 0 1 6 11 15 16 13 18 18 18 19 16 10 12 14 14 8 5 10 10 3 3 6 5 2 8 5 7 7 6 3 7 7 10 13 13 12 10 8 8 4 11 8 2 4 9 7 7 7 8 8 8 8 8 8 8 8 8 10
17 17 14 25 20 19 17 15 19 20 17 14 11 8 7 3 9 16 29 24 28 27 27 24 13 13 12 7 3 3 5 3 13 15 16 19 18 16 19 20 16 14 13 11 8 6 6 6 6 2 3 1 5 8 6 7 7 7 6 8 9 9 4 7 11 14 13 7 9 7 11 11 12 7 7 6 6 6 7 7 8 8 8 9 8 9 9 9
18 18 17 17 17 16 17 15 17 19 18 14 10 9 7 2 5 9 28 23 25 29 22 18 13 10 12 10 5 8 7 16 15 15 13 17 18 19 20 19 15 13 11 6 6 5 5 9 8 5 6 3 10 9 8 7 7 8 9 7 10 9 9 5 12 12 15 7 11 15 8 4 9 14 10 9 8 8 8 9 9 9 9 9 8 8 8 8
22 23 20 18 17 15 14 16 15 17 17 16 13 11 8 4 9 11 28 25 21 16 16 13 16 11 13 2 5 14 13 13 13 12 14 16 16 16 18 18 15 14 10 7 7 7 5 6 2 1 6 8 9 10 9 9 8 9 8 9 10 13 9 9 8 8 9 9 9 14 13 16 8 5 4 3 8 9 8 8 9 8 8 8 7 8 9 9
22 22 20 20 20 17 12 15 18 19 20 18 14 11 4 7 4 8 20 22 13 12 10 3 12 9 6 6 16 19 16 14 15 13 13 13 17 17 18 16 15 15 13 11 8 12 3 4 4 8 7 10 12 12 12 12 12 10 11 10 8 4 8 7 5 9 11 12 13 11 15 18 17 12 8 8 8 8 9 8 8 9 9 8 8 8 10 10
22 20 18 17 18 16 16 16 19 21 20 19 16 13 7 4 1 5 9 17 16 11 11 15 17 17 15 20 15 18 15 14 12 17 15 18 17 16 15 12 16 19 14 12 9 12 3 4 3 8 12 13 14 14 12 8 12 13 12 11 9 8 9 10 4 9 11 10 11 14 13 15 17 16 15 13 10 11 11 10 9 9 8 8 8 8 9 10
21 20 19 18 18 17 17 15 16 17 21 13 10 6 2 3 6 6 11 18 20 22 16 25 21 2 7 19 17 15 16 17 15 15 16 14 17 20 17 15 15 14 15 14 13 13 9 10 11 13 12 13 15 17 15 8 4 10 11 10 11 8 7 7 7 6 6 6 12 14 16 17 16 13 14 16 13 11 13 14 12 10 10 10 10 10 10 11
21 20 20 18 17 16 14 12 11 10 7 9 9 7 5 7 5 8 8 13 17 15 16 22 16 7 12 21 22 27 23 15 14 18 18 15 17 22 16 17 16 15 14 15 14 10 11 11 14 13 15 18 16 15 15 4 7 7 8 9 8 9 8 5 7 7 4 7 9 10 13 17 16 14 13 13 14 18 14 14 14 14 12 11 12 13 12 11
21 20 19 20 19 17 16 13 10 7 5 4 7 5 2 4 2 5 3 9 12 8 12 24 13 9 18 20 19 19 15 18 16 17 14 19 19 18 16 18 19 16 14 13 10 11 13 18 15 16 13 15 14 14 12 8 8 7 6 6 7 8 7 5 3 6 5 5 9 10 11 13 15 14 14 15 16 15 14 14 14 15 16 14 13 13 12 10
21 21 21 23 22 19 17 14 9 6 3 5 7 5 5 6 5 3 5 4 9 5 18 18 21 17 19 16 21 23 21 15 15 17 18 19 19 14 18 17 15 15 18 16 14 13 11 14 18 17 14 16 15 15 12 10 7 7 7 8 9 6 7 6 10 9 6 6 4 5 9 12 15 15 17 16 16 16 17 16 15 14 16 16 15 12 11 12
20 22 23 22 21 20 17 13 6 2 1 4 7 4 3 4 4 6 5 6 7 4 14 20 21 18 20 21 18 22 24 14 18 20 15 18 19 14 14 19 21 16 18 19 15 15 11 9 16 18 18 18 17 16 13 10 9 9 9 9 7 7 6 6 4 5 3 7 5 9 11 13 15 16 15 15 18 18 18 16 16 15 13 12 9 9 10 12
20 21 22 23 19 19 17 11 4 1 0 5 4 1 2 3 8 7 2 2 2 2 7 12 2 13 12 6 20 17 13 13 11 18 16 18 22 15 14 12 11 10 15 20 16 13 12 12 16 18 15 16 14 13 15 10 10 9 11 10 8 5 6 5 6 3 4 7 11 8 6 9 12 17 18 12 11 17 17 18 19 17 14 10 12 12 9 7
19 18 19 21 21 19 17 7 1 2 1 4 6 2 1 2 7 6 3 2 4 5 12 19 7 12 7 15 15 10 18 10 11 13 12 12 13 14 12 12 9 19 21 22 17 10 11 14 20 19 19 15 14 12 13 11 10 9 8 12 10 7 5 5 6 3 5 7 4 7 9 6 2 7 9 9 11 13 11 17 19 16 14 13 12 11 11 12
19 21 20 22 23 22 9 3 4 2 4 3 2 1 2 2 5 9 0 2 4 6 15 7 13 6 6 21 18 23 20 11 7 12 14 10 16 9 17 11 10 7 12 10 4 7 8 12 15 16 16 15 13 12 12 14 8 10 7 11 13 11 6 6 6 6 7 4 4 7 7 8 8 14 11 12 11 13 14 16 16 15 15 16 15 14 13 13
23 23 22 23 12 2 4 8 9 5 2 4 4 1 3 2 8 8 1 6 6 9 8 7 3 2 4 19 21 14 11 26 15 15 11 4 9 12 13 18 15 19 18 14 16 5 17 15 20 18 16 12 14 12 12 15 10 1 2 6 9 8 6 5 4 5 4 5 6 7 7 5 9 12 8 6 10 14 17 15 14 15 16 17 17 16 15 15
23 23 18 11 8 9 8 9 9 9 4 4 2 3 5 7 6 7 3 3 0 5 4 10 2 7 13 18 18 9 16 10 9 10 7 8 8 3 13 17 15 18 16 15 12 3 5 13 16 16 13 13 10 11 14 16 11 4 4 6 4 4 3 4 4 4 4 4 11 8 9 7 11 7 9 8 11 15 13 11 13 14 16 15 15 16 15 13
24 22 19 11 11 8 5 7 6 5 7 5 3 4 9 9 6 6 4 6 3 6 2 2 7 14 21 19 15 9 19 4 8 9 6 6 5 3 5 6 11 17 15 5 4 3 4 5 5 11 13 11 10 5 11 14 3 12 10 10 8 5 3 2 2 2 3 10 11 8 11 10 8 6 11 8 8 9 7 8 9 10 11 13 13 14 12 12
26 26 21 11 8 7 10 6 6 8 7 5 5 6 5 5 4 6 8 1 5 4 3 11 10 21 23 22 14 13 14 13 10 18 9 7 5 3 7 6 6 7 6 2 3 5 9 6 7 3 4 5 14 10 7 9 13 12 6 8 8 4 3 4 2 2 4 8 0 9 13 13 10 4 7 11 3 5 7 8 7 7 8 8 9 10 10 7
25 26 18 7 6 6 7 9 9 9 9 7 7 6 8 6 2 7 5 2 5 4 5 9 12 19 25 19 12 18 14 13 15 17 16 15 12 14 17 13 11 12 9 12 8 6 9 12 6 5 4 11 13 11 5 9 11 9 9 10 8 5 4 5 5 7 10 8 2 3 5 6 19 12 6 6 5 7 8 7 7 6 5 6 2 2 2 2
24 20 11 7 8 3 4 8 8 9 9 7 6 7 5 8 7 4 4 5 1 3 5 3 17 21 21 23 14 13 14 20 20 18 18 14 15 9 11 7 18 2 15 14 10 8 4 4 0 5 4 8 14 14 11 9 11 12 12 11 9 9 8 8 9 5 4 3 3 5 2 9 10 9 16 21 19 10 9 9 8 8 9 8 4 4 4 3
22 18 11 6 6 5 7 8 7 9 11 7 9 4 1 9 7 5 5 3 3 2 3 7 17 20 28 20 16 19 12 10 22 12 16 13 12 14 10 5 18 8 8 13 10 11 9 6 12 14 9 11 15 11 12 8 14 11 9 10 8 8 4 8 7 10 5 1 4 4 3 5 3 2 4 6 9 10 10 10 9 5 4 6 6 4 5 5
18 15 14 10 8 8 9 6 7 12 7 7 3 3 9 6 4 9 4 4 2 5 3 5 15 19 17 12 14 21 11 12 19 19 16 17 16 14 16 12 20 13 14 14 7 5 12 2 5 14 3 17 13 9 13 15 10 10 9 8 10 10 5 5 2 2 2 2 3 5 6 3 7 6 5 4 6 6 6 8 5 7 6 6 6 6 6 7
17 10 10 8 7 5 7 5 7 9 9 6 4 4 6 1 5 2 4 7 6 6 6 6 11 18 15 12 11 18 5 12 16 15 10 15 15 17 15 13 19 22 17 14 14 12 10 9 6 10 2 16 15 12 14 17 10 12 12 14 11 6 1 2 1 3 2 2 8 5 5 7 8 14 15 11 6 7 8 10 10 10 10 9 7 5 5 6
11 11 9 9 9 7 8 7 4 8 6 6 2 4 2 2 3 6 4 8 7 12 8 13 11 9 15 11 12 15 9 12 20 16 10 13 11 12 16 12 15 22 18 12 10 4 14 6 3 8 9 8 3 4 12 12 2 11 10 11 7 3 5 2 5 2 3 7 4 6 7 6 2 6 4 14 10 9 10 11 11 12 10 9 8 7 7 7
10 10 11 10 9 8 9 8 8 8 5 2 3 1 3 2 0 2 2 4 9 6 5 6 2 6 9 9 12 15 15 18 15 14 11 17 5 17 18 15 21 20 22 15 10 11 11 7 4 3 8 6 2 6 8 1 5 7 9 8 10 6 7 8 2 5 6 7 4 6 10 9 9 10 4 9 13 14 15 13 11 12 11 10 8 8 8 6
9 9 7 7 7 8 8 8 10 9 4 4 4 5 1 1 2 1 5 1 5 9 8 4 1 2 2 9 11 14 20 14 20 16 14 11 9 19 20 14 19 24 23 20 13 11 11 5 5 1 5 7 4 9 12 10 3 3 2 10 8 4 7 8 7 2 1 6 3 3 6 6 10 8 9 8 12 12 13 13 13 11 8 8 7 6 5 4
8 6 5 7 8 8 9 8 10 6 3 6 5 3 2 1 3 6 6 5 5 5 4 4 2 1 0 3 12 12 12 14 22 14 15 13 6 20 26 20 16 23 24 23 14 12 10 7 6 7 5 10 9 7 13 16 13 9 9 11 8 4 3 4 3 6 3 4 7 6 6 5 5 8 9 12 11 9 9 10 8 7 4 2 2 2 2 1
5 5 7 7 9 9 11 9 8 4 3 1 3 2 4 0 2 1 4 7 5 6 3 4 2 2 2 2 6 10 10 15 12 13 5 11 14 13 18 19 17 24 20 20 12 11 5 11 9 12 9 12 9 8 2 11 14 11 11 12 13 11 6 8 7 4 2 3 4 4 9 3 4 3 4 4 5 7 9 8 7 4 3 2 1 1 1 1
7 5 6 10 10 11 10 8 4 3 2 4 4 3 1 2 3 1 1 2 4 2 4 3 4 2 1 0 2 4 6 12 14 12 10 14 18 9 17 26 22 23 21 14 15 4 5 6 11 9 10 10 4 2 2 3 4 12 12 11 12 11 8 6 9 7 2 3 3 2 5 4 5 5 5 6 6 6 5 4 2 3 2 0 1 1 1 2
5 6 8 11 10 11 8 7 4 2 2 1 4 5 1 4 3 3 2 1 0 2 1 3 3 2 2 1 1 1 5 2 17 11 13 14 16 14 13 31 23 25 18 10 9 3 9 4 10 7 6 6 6 3 2 3 1 11 12 11 13 16 18 13 4 3 6 3 3 5 5 6 2 2 2 4 3 4 2 2 3 1 1 1 2 3 3 3
8 8 6 6 10 8 7 8 8 8 6 2 3 4 6 3 3 3 2 3 3 2 2 1 1 2 1 4 3 3 3 2 7 13 7 11 9 12 20 26 30 19 19 11 15 13 10 6 13 8 5 3 5 4 5 3 4 9 13 17 16 12 12 6 2 0 3 9 6 6 12 8 3 1 2 2 2 3 3 3 3 4 3 3 2 2 2 3
8 6 6 6 6 8 9 5 8 7 9 6 3 3 3 2 3 5 4 3 4 3 1 1 4 1 1 5 2 1 2 1 1 11 1 11 5 6 22 22 28 20 13 9 7 8 2 9 12 14 15 14 12 15 17 17 21 13 12 12 16 18 16 8 6 5 7 5 12 8 12 6 4 2 4 5 3 2 3 3 5 4 4 3 2 1 2 1
4 6 2 4 4 5 8 4 3 5 7 6 4 4 4 5 5 4 5 5 5 5 4 3 2 3 2 2 4 2 1 3 1 1 1 1 2 3 15 23 26 18 15 18 15 14 4 7 8 8 13 13 8 1 5 10 8 9 14 17 18 15 11 9 2 6 13 10 9 13 14 3 2 7 7 8 7 6 6 6 6 5 6 5 4 2 1 1
5 6 8 6 4 5 6 6 4 6 8 9 4 6 7 8 5 4 10 4 7 7 4 5 3 2 2 2 3 2 3 2 1 2 3 1 3 2 13 21 22 18 17 11 13 6 2 6 13 13 16 12 8 7 9 13 9 10 11 14 14 18 12 13 12 17 9 4 10 17 17 12 9 11 11 11 10 8 7 7 5 5 4 4 4 3 3 2
3 4 7 9 4 8 9 9 10 8 9 11 6 7 9 8 6 5 7 9 5 9 5 5 8 7 4 4 4 3 5 3 4 2 1 4 1 5 9 12 15 15 17 9 7 10 10 12 15 14 15 8 7 12 15 14 15 15 15 13 13 14 16 16 21 17 8 12 17 14 11 16 18 14 14 14 12 11 11 8 5 3 4 3 2 2 4 4
1 4 4 7 3 9 12 10 12 10 10 10 5 5 7 7 9 9 5 6 6 6 9 5 8 11 11 7 5 5 5 5 4 1 2 2 4 9 7 7 2 8 16 9 2 1 6 11 12 12 12 14 6 9 13 15 13 16 19 22 20 21 21 21 22 18 17 18 24 10 12 21 21 16 16 14 9 9 6 4 4 2 4 4 5 6 7 8
4 7 7 6 5 9 12 8 10 8 7 5 2 5 4 7 11 8 7 5 5 7 9 11 9 10 11 11 10 9 9 7 4 6 6 7 3 5 9 9 8 9 15 14 9 5 11 10 13 10 11 10 4 4 10 15 15 16 18 21 22 20 21 24 24 24 22 25 24 20 19 19 15 12 15 12 5 5 6 5 5 6 6 8 8 8 8 9
3 1 1 8 7 5 8 9 10 11 9 10 8 7 7 9 12 9 8 8 10 7 12 16 13 9 10 12 13 16 15 11 7 5 12 12 8 9 6 7 11 13 10 10 9 5 9 7 10 7 11 11 6 6 6 3 11 13 12 18 22 25 23 25 25 24 17 20 25 22 19 21 17 11 9 11 10 7 7 7 7 7 8 7 7 7 8 9
2 2 2 3 7 7 7 9 8 8 9 9 10 12 10 15 13 9 8 7 11 11 9 14 11 8 8 13 18 19 15 12 10 3 2 6 9 9 5 6 4 13 13 17 14 12 12 8 9 9 10 13 11 9 8 5 5 6 15 23 30 31 27 18 16 12 20 26 24 16 22 23 6 11 15 16 14 8 10 10 9 10 9 9 8 8 10 12
Wind_Direction
191 183 185 181 178 180 168 124 313 242 224 214 214 204 203 199 190 184 181 183 175 171 171 170 165 162 159 154 156 155 155 158 167 184 199 204 155 92 67 120 154 156 184 192 172 172 174 186 194 169 190 213 124 222 93 222 66 211 214 225 218 238 215 181 216 176 56 78 92 140 188 222 173 161 184 186 218 234 138 203 142 90 160 83 99 123 124 135
188 184 182 181 176 175 169 145 82 343 235 214 209 210 200 198 192 183 179 181 172 174 172 168 165 163 158 158 153 156 171 186 188 197 203 146 130 146 141 170 156 175 191 201 182 187 181 187 186 186 198 212 117 207 203 161 226 219 218 225 239 210 54 42 52 82 216 89 70 78 191 239 299 169 160 213 204 201 209 212 186 191 176 124 117 139 156 152
186 182 180 179 177 170 160 149 153 59 329 226 210 213 199 199 195 183 180 179 172 173 171 169 164 163 159 159 157 164 185 205 216 215 187 120 139 147 161 165 173 177 195 184 192 197 194 191 180 192 203 227 162 201 210 147 220 224 248 223 235 226 105 92 30 101 73 111 117 100 120 253 97 244 126 226 229 196 221 209 195 213 189 175 144 158 159 161
188 185 182 180 175 170 162 156 154 174 241 304 243 209 201 197 196 188 179 178 172 169 169 167 163 160 158 159 156 172 199 217 230 209 186 146 150 153 155 155 189 197 222 244 190 204 197 177 180 196 201 233 172 202 187 166 216 143 231 231 244 179 191 134 93 85 89 346 116 99 92 235 176 225 192 211 240 229 228 231 214 208 206 177 160 160 168 167
193 188 183 179 172 173 163 158 163 196 199 256 276 248 200 195 192 186 181 178 171 170 167 165 162 157 154 155 162 175 175 224 225 206 171 149 160 158 159 179 147 221 237 187 183 165 170 175 182 195 209 218 202 196 222 172 229 97 226 306 357 89 226 101 104 86 84 21 244 128 226 95 64 242 234 236 232 241 8 203 215 233 228 163 164 165 172 174
196 189 181 182 177 183 176 164 169 178 205 231 259 262 215 190 189 186 179 177 173 170 167 164 161 155 150 157 166 184 175 210 132 195 151 161 166 160 161 172 176 209 219 173 182 171 176 183 179 191 206 227 201 212 205 195 174 226 191 239 274 313 273 122 118 102 183 186 211 226 115 354 231 252 221 238 243 38 57 40 39 11 55 150 158 158 173 180
191 186 182 183 182 188 189 166 164 193 165 212 249 244 232 194 188 184 179 177 173 170 167 165 162 154 152 155 180 190 198 214 7 173 157 165 170 161 160 159 157 185 201 187 188 171 192 178 192 195 210 221 213 217 202 169 181 231 237 180 207 203 200 137 104 128 180 205 232 32 24 245 226 253 118 242 244 260 86 68 68 68 129 146 157 169 176 183
186 185 184 190 192 193 188 172 159 156 151 124 326 258 220 214 188 182 180 175 171 170 165 164 164 157 143 156 163 204 201 216 119 165 155 159 163 156 157 162 169 152 201 196 187 191 184 191 191 190 213 207 196 212 170 195 191 215 238 176 160 180 133 131 119 138 151 189 128 241 243 236 234 291 8 250 250 248 157 124 113 138 165 167 171 176 181 185
188 189 186 189 190 188 182 160 152 150 153 155 99 343 241 213 195 183 178 174 171 167 165 163 163 154 152 159 184 182 209 196 106 159 158 151 162 158 154 160 163 171 179 161 220 208 194 194 196 195 205 207 198 214 167 199 208 217 227 185 163 185 166 137 154 166 158 146 171 220 240 242 128 3 263 257 254 237 148 185 173 166 178 187 186 182 183 188
191 192 190 187 186 188 172 147 145 148 144 153 148 38 327 224 205 180 177 174 169 167 165 163 158 154 156 181 183 203 193 160 132 151 178 162 156 154 170 154 157 151 152 176 140 313 196 174 213 164 317 221 167 212 177 209 346 187 205 188 189 186 179 165 210 187 174 233 159 248 254 216 120 203 266 194 97 127 179 213 201 202 199 194 193 189 192 191
191 188 187 184 183 181 159 146 137 135 136 128 143 138 2 262 209 183 177 171 168 167 164 163 155 154 169 186 187 199 57 146 142 154 175 171 151 161 169 151 160 164 148 146 195 217 278 71 289 100 291 216 189 198 196 204 110 201 169 161 201 176 205 187 217 211 181 225 191 264 270 276 171 201 240 128 159 165 195 197 200 209 217 205 198 194 195 199
187 182 184 184 177 172 158 145 136 136 133 124 117 156 257 343 204 191 173 177 167 164 164 161 160 163 170 189 204 182 254 145 152 161 171 169 164 167 155 149 157 152 154 159 180 216 207 222 196 212 192 155 191 125 209 108 199 125 186 203 211 218 228 213 218 216 204 217 158 315 288 256 203 229 216 239 155 184 203 201 201 211 219 216 206 196 195 203
179 187 189 183 171 161 156 148 137 131 131 130 117 116 204 7 250 183 180 176 167 164 163 163 163 173 164 192 197 71 224 153 141 164 170 173 165 160 148 151 172 175 163 161 177 195 194 181 160 199 272 222 167 188 109 170 161 162 189 228 215 225 239 224 219 225 199 193 137 164 256 241 228 216 211 201 164 173 204 210 199 206 212 216 209 204 204 199
161 150 189 175 160 157 153 144 133 134 134 135 127 113 83 247 326 192 176 173 168 165 158 162 168 174 178 193 119 245 190 172 137 163 170 167 164 162 153 161 182 173 171 177 180 177 167 166 195 211 329 259 173 119 164 149 170 196 176 236 240 224 242 211 207 201 207 160 163 182 253 258 337 150 224 170 182 180 215 219 213 204 202 208 209 214 214 206
147 155 176 153 147 149 141 142 133 134 137 133 132 117 103 262 321 211 171 167 167 160 155 158 174 163 193 173 49 153 299 169 160 168 167 168 162 152 166 166 175 181 187 190 135 142 174 138 102 150 201 301 125 175 147 184 183 195 156 217 222 237 215 143 188 196 209 153 188 176 252 255 258 259 156 163 190 201 226 232 224 211 204 203 205 216 221 219
150 161 168 138 134 137 145 144 137 136 138 139 142 129 141 251 264 258 168 170 163 155 153 162 183 187 167 186 164 121 164 179 175 161 169 173 162 161 158 167 167 178 174 128 124 131 156 161 189 207 168 199 190 186 170 161 200 194 215 216 211 213 225 183 189 207 216 196 189 201 243 233 233 233 218 170 191 205 228 240 241 231 214 206 205 209 219 222
156 160 155 144 135 133 143 142 149 144 140 140 136 137 151 187 209 303 179 166 161 154 161 167 167 188 180 38 120 171 174 185 163 159 171 188 176 166 160 164 171 163 150 122 136 140 153 160 20 344 214 195 191 194 180 197 184 194 206 234 228 218 211 240 111 212 193 198 196 207 233 245 238 133 214 181 216 206 221 227 232 231 225 216 210 210 213 219
162 157 147 144 140 144 148 154 146 139 133 131 129 143 149 182 261 314 186 161 152 154 137 121 165 161 223 161 176 181 164 163 172 160 168 168 179 166 166 164 162 159 147 146 151 169 184 162 197 194 185 202 194 200 197 198 196 189 191 211 227 227 231 237 208 172 183 197 231 213 227 245 247 240 202 190 202 218 223 218 226 226 221 221 216 215 215 218
162 158 149 144 142 137 132 144 136 134 130 126 125 120 135 198 215 257 203 147 152 156 166 172 173 195 187 187 169 164 162 147 143 158 166 169 173 165 160 155 158 152 165 163 176 172 183 127 227 203 196 196 198 200 205 205 199 207 194 201 212 208 210 229 205 131 184 196 216 229 231 239 245 243 242 229 187 224 238 239 236 234 227 224 221 222 224 222
154 153 152 148 144 132 129 131 139 138 128 124 118 111 81 205 197 212 184 165 179 172 161 155 187 168 95 151 162 133 128 148 150 174 160 163 155 161 164 160 164 177 165 181 159 188 155 170 193 201 195 192 197 203 208 222 304 217 206 203 217 225 235 214 210 133 185 226 230 232 240 250 252 244 240 240 234 221 237 241 237 229 226 229 230 227 223 223
149 150 146 143 131 122 123 122 123 135 133 132 135 135 198 197 224 194 192 175 167 193 176 165 156 90 121 139 156 147 149 164 168 164 166 159 169 157 165 166 165 184 189 170 155 147 178 195 207 200 192 193 197 203 213 198 229 211 201 205 213 223 241 241 195 140 160 221 251 237 247 254 255 253 250 243 238 238 222 232 238 237 233 229 229 228 221 223
150 146 140 127 130 134 133 128 124 120 113 116 143 169 182 171 55 110 275 181 167 154 139 154 169 146 149 157 150 140 127 152 162 161 157 177 163 169 165 179 175 183 177 157 143 158 196 207 195 193 194 192 203 206 214 208 205 214 222 204 233 228 226 76 132 144 159 210 254 265 265 263 263 259 250 243 242 242 234 229 231 233 236 236 228 224 222 214
151 149 143 137 138 137 125 118 109 117 153 155 165 158 167 153 125 123 86 270 128 153 155 160 170 157 153 145 159 142 147 158 151 163 168 181 168 189 160 178 179 177 177 167 166 165 194 213 194 185 192 193 199 207 201 210 223 216 211 226 220 220 211 217 196 174 175 216 284 289 281 278 275 266 258 249 240 239 239 235 231 227 235 234 229 220 216 216
151 151 144 140 139 124 107 102 97 79 67 161 120 123 143 138 122 62 26 237 158 100 177 169 164 158 157 159 166 158 147 159 152 176 177 181 176 152 167 171 171 180 186 177 181 180 187 184 190 186 199 199 197 192 193 200 211 216 229 227 231 212 219 258 88 173 164 241 274 279 277 272 267 264 258 241 234 237 234 234 228 225 227 233 243 241 227 223
149 151 147 144 132 120 115 100 65 98 214 95 87 307 64 92 96 88 354 261 72 132 140 150 187 158 151 14 162 165 144 135 168 159 176 183 167 147 182 159 156 180 169 180 187 191 197 178 182 184 188 193 189 191 200 196 220 214 220 228 228 229 225 149 131 181 226 246 202 209 271 259 244 240 247 248 229 227 227 230 227 220 216 209 223 226 225 233
145 141 153 145 134 124 115 95 207 157 107 89 145 168 208 85 115 111 111 23 181 153 148 185 160 182 138 164 152 138 117 169 149 160 158 191 169 168 141 183 178 173 176 175 186 203 195 182 178 176 186 191 202 207 194 197 214 216 220 204 229 248 253 201 195 175 260 261 94 197 238 271 331 276 249 243 239 240 224 225 232 225 223 218 218 218 216 216
148 145 157 149 137 135 127 158 155 113 148 124 89 136 245 147 116 80 359 317 206 203 163 105 177 166 182 160 149 136 178 165 116 149 171 180 173 182 162 166 177 183 171 162 141 211 144 170 173 183 183 188 192 203 188 189 202 219 64 175 207 220 219 209 217 228 257 358 172 205 238 271 275 268 267 260 234 235 235 230 226 227 228 225 222 217 215 212
151 151 157 151 131 97 144 136 138 171 86 125 126 195 162 128 85 82 311 187 225 127 180 160 226 14 194 164 156 166 81 126 149 183 168 54 184 172 201 171 180 169 170 166 190 100 162 169 183 181 187 186 202 196 165 185 203 136 99 154 189 198 201 214 221 237 266 348 269 197 196 262 239 258 260 222 244 242 241 234 227 222 222 224 224 222 214 212
149 148 157 132 81 118 120 127 152 162 110 134 167 119 125 75 81 111 168 216 237 115 313 128 213 155 146 154 166 156 129 164 99 120 86 89 7 171 188 185 174 166 169 187 192 52 181 181 176 177 181 198 185 183 176 177 198 104 132 118 127 155 165 192 219 245 256 246 249 225 182 245 268 238 252 197 236 247 246 242 234 225 222 221 226 228 227 220
148 141 155 132 104 97 91 105 132 125 117 146 187 167 119 113 89 168 198 245 113 182 178 131 169 162 147 160 155 173 140 138 115 130 135 141 148 24 9 96 171 160 165 74 55 98 117 356 181 174 199 190 160 148 171 182 121 126 123 120 118 130 150 173 253 275 264 247 247 224 207 221 286 209 227 206 226 229 250 248 238 235 232 232 230 230 225 221
144 149 154 153 135 143 133 130 122 125 133 153 177 149 106 59 165 153 200 233 70 302 124 166 155 150 159 163 151 171 125 133 135 136 143 130 135 94 139 86 348 143 126 117 105 146 128 142 188 157 22 142 114 85 48 130 137 150 140 141 127 110 143 179 188 211 240 258 206 201 217 200 239 213 214 241 150 177 235 246 233 215 222 232 235 231 225 199
143 148 153 157 125 148 145 150 146 136 143 166 149 152 154 133 260 196 185 132 179 186 216 144 164 157 161 162 152 161 152 128 152 157 149 169 158 162 185 159 158 151 171 175 187 153 158 179 160 102 285 161 148 131 146 150 162 173 159 160 160 163 165 209 198 210 220 250 109 56 110 203 239 242 268 269 247 243 228 235 218 215 241 257 270 140 141 155
139 139 115 106 131 121 52 108 130 139 139 152 148 166 173 173 188 203 131 143 253 112 222 241 166 163 160 160 173 144 140 156 162 169 150 164 158 184 189 184 168 111 170 175 130 150 137 110 126 151 165 221 170 170 156 175 185 179 176 172 184 188 191 224 209 231 253 142 142 116 153 259 287 280 231 246 254 234 227 223 240 251 263 262 222 170 181 197
129 134 129 109 100 93 125 121 134 136 145 165 156 149 198 183 184 46 131 162 152 45 194 188 166 163 167 173 162 150 146 150 163 164 160 151 157 165 185 162 181 135 129 153 148 170 144 192 219 165 203 184 201 199 169 158 169 184 187 188 197 197 186 203 195 203 214 165 129 144 136 240 199 170 9 291 280 267 230 230 243 261 268 269 274 228 230 240
116 121 116 105 91 102 125 107 136 143 143 154 129 182 179 172 133 164 142 152 124 140 188 250 180 163 171 171 156 171 153 158 169 155 173 158 179 172 172 182 191 178 149 144 186 179 187 68 145 173 41 162 186 187 152 145 160 193 195 205 222 221 253 256 3 287 158 144 177 191 224 259 232 21 270 223 250 239 246 246 242 252 248 246 248 237 230 234
119 117 121 112 107 121 120 112 128 138 146 157 159 204 189 227 164 176 158 140 146 140 164 239 212 175 169 165 160 169 322 146 169 151 171 175 166 178 176 175 185 187 166 175 153 184 175 201 134 118 319 174 176 169 174 157 179 178 185 203 203 17 244 131 144 106 31 321 255 166 255 261 263 269 245 250 221 233 221 231 236 243 247 248 245 236 229 230
112 127 106 108 102 118 127 125 124 120 127 163 206 185 350 30 335 114 134 145 159 145 154 181 204 193 172 169 165 167 152 124 163 161 174 163 180 185 175 186 187 187 194 161 162 221 171 131 360 134 148 186 16 224 183 182 15 142 202 196 100 57 358 239 232 131 220 239 248 154 230 259 276 287 174 193 208 216 215 220 223 234 239 238 236 228 225 230
118 103 108 112 121 123 126 136 120 102 116 184 204 220 55 106 77 80 18 152 127 141 147 207 329 19 184 152 177 165 161 158 168 166 158 181 195 172 174 175 187 195 189 184 161 179 157 97 197 313 167 111 181 154 185 239 317 202 187 133 156 196 216 204 247 229 198 221 253 222 222 248 234 236 138 192 210 225 232 229 221 223 229 232 230 232 233 226
119 118 101 119 130 128 132 142 122 136 125 181 234 225 335 281 174 316 14 12 129 154 176 192 335 286 257 186 162 165 171 170 162 171 152 194 180 183 186 165 180 195 194 184 192 167 179 129 132 221 162 147 152 180 189 189 199 305 305 186 216 311 218 187 205 300 216 242 224 249 155 254 199 224 215 209 196 219 225 224 231 240 243 226 228 222 212 212
140 121 110 142 144 136 132 145 130 149 165 197 208 208 103 91 262 312 334 346 127 165 198 162 295 141 189 307 182 160 189 154 167 174 178 167 184 162 187 182 173 188 190 193 195 157 178 167 162 147 147 143 186 202 202 184 175 178 190 192 184 212 356 321 216 215 214 240 229 263 248 233 205 184 199 225 229 204 198 199 210 226 219 195 232 237 225 210
145 111 119 151 154 145 139 140 152 167 179 229 81 143 72 55 41 336 310 356 9 25 66 138 153 163 176 168 190 185 177 165 168 172 161 162 176 160 196 182 171 178 183 193 209 172 175 184 155 138 167 195 199 185 238 197 185 190 188 196 190 176 183 186 219 190 241 211 238 223 254 259 109 141 166 220 224 194 184 191 205 173 144 169 116 26 45 312
155 142 132 172 161 163 155 153 191 174 243 193 196 164 154 156 74 326 77 302 47 48 30 93 132 91 92 163 340 201 171 174 177 172 183 173 193 199 181 184 173 164 170 180 182 185 179 128 121 162 179 185 130 50 151 324 248 199 197 207 195 199 203 212 217 194 171 233 29 328 328 271 120 151 206 222 212 215 183 189 163 93 82 209 274 255 238 222
153 88 111 166 165 169 164 175 185 181 226 263 360 105 82 100 173 165 132 136 360 135 51 71 166 130 297 233 254 206 349 196 180 185 173 194 192 192 158 182 165 171 178 167 116 257 75 123 102 102 107 72 79 139 34 4 276 196 217 219 200 203 201 205 232 119 187 157 215 238 244 256 129 211 217 196 123 85 81 89 99 97 168 236 233 242 248 238
105 107 118 164 172 188 188 185 191 201 213 181 97 202 150 178 144 135 101 185 157 121 138 181 202 198 175 176 154 168 191 101 230 185 190 184 185 173 164 179 174 176 179 171 174 178 172 188 139 132 125 166 163 122 195 200 231 220 206 205 212 208 204 216 72 89 229 197 200 192 241 260 128 301 251 221 144 151 138 152 173 196 199 200 203 213 208 222
111 96 113 148 189 213 202 197 198 197 200 201 197 203 156 178 231 188 164 200 195 242 199 55 229 293 125 161 146 182 354 336 134 218 34 182 165 153 167 178 183 182 184 152 141 139 12 154 159 163 167 172 180 190 192 189 203 202 210 190 205 205 191 133 199 198 235 193 183 212 242 243 101 262 240 204 161 221 225 182 184 206 209 206 209 215 226 187
149 118 128 127 192 206 242 275 258 195 183 198 222 241 215 215 165 189 195 228 189 210 212 279 106 184 344 152 182 145 178 248 78 338 77 46 68 242 178 178 182 185 155 118 137 169 157 179 199 174 180 193 192 121 70 66 88 180 186 197 194 203 183 179 191 215 221 212 195 221 234 265 198 213 218 212 211 209 207 197 206 212 218 215 212 228 266 198
152 155 154 145 136 219 210 215 195 187 193 171 189 183 217 222 195 184 176 215 199 204 206 215 229 141 204 226 259 198 162 125 122 41 308 147 349 319 178 177 182 179 119 116 163 136 107 197 207 195 201 192 166 151 133 148 156 180 169 193 186 192 186 190 198 220 194 77 236 230 223 237 218 194 202 206 206 204 213 207 200 201 201 201 192 179 197 223
164 176 167 169 132 179 189 209 199 186 194 184 196 163 208 211 201 198 168 201 188 187 201 196 217 219 239 183 207 233 166 142 136 175 86 3 193 150 152 175 183 157 143 160 206 173 184 198 199 208 208 178 124 153 145 153 171 173 176 178 172 178 193 201 218 229 151 212 233 236 188 226 231 200 197 197 192 195 201 202 202 145 105 121 127 187 198 212
303 127 172 172 218 171 191 194 194 195 185 179 204 186 209 209 220 207 192 176 192 206 195 227 200 205 212 218 230 237 179 154 207 155 128 199 233 159 144 153 187 145 164 149 217 167 167 222 183 195 212 207 188 177 169 168 168 167 176 183 185 188 199 207 225 223 211 227 234 234 174 218 230 201 204 199 184 191 158 89 84 119 181 167 184 200 203 201
181 152 182 176 220 180 194 182 179 186 209 189 235 213 226 211 227 221 215 201 187 210 189 228 226 198 203 207 213 237 222 221 146 154 183 152 244 236 169 177 145 189 175 174 168 218 194 206 175 178 207 215 208 237 189 187 165 184 184 185 184 187 201 210 220 225 217 233 240 241 248 256 246 211 211 202 170 74 93 157 177 193 191 189 191 197 206 203
170 164 207 177 193 187 174 174 180 186 181 188 204 221 222 229 236 224 232 202 217 193 190 218 218 215 200 207 216 225 230 230 239 208 163 174 201 221 170 209 165 159 181 173 187 193 206 198 170 168 199 217 192 185 216 221 187 181 185 184 184 188 200 208 214 215 199 221 233 236 245 249 250 155 200 195 194 151 175 180 195 200 210 201 188 197 208 214
42 117 16 191 194 183 182 178 187 177 207 196 196 196 195 216 229 215 244 240 232 236 218 213 217 212 214 212 221 223 222 220 235 3 40 207 213 229 278 354 222 171 168 188 181 188 195 183 177 170 197 217 185 157 142 102 83 197 202 194 193 196 201 207 223 217 206 211 221 219 229 234 93 151 187 192 196 183 208 198 197 203 188 189 191 201 212 221